[[{"header":{"parameterUnit":"m.s-1","parameterCategory":1,"la1":30.2991,"la2":30.254,"lo1":-89.0895,"lo2":-89.0444,"dx":0.0017,"dy":0.0017,"nx":28,"ny":28,"refTime":"2022-12-14T15:00:00:Z","depth":0,"parameterNumber":2,"parameterNumberName":"U-component_of_WINDS"},"data":[0,0,0,0,0,0,0,0,0,0,0,0,0,0,0,0,0,0,0,0,0,0,0,0,0,0,0,0,0,0,0,0,0,0,0,0,0,0,0,0,0,0,0,0,0,0,0,0,0,0,0,0,0,0,0,0,0,0,3.8999,3.8999,0,3.8999,3.8999,3.8999,3.8924,3.8922,3.892,3.8918,3.8917,3.8919,3.8921,0,0,0,0,0,0,0,0,0,0,0,0,0,3.8935,3.8937,3.8999,3.8999,3.8999,3.8999,3.8999,3.8999,3.8924,3.8922,3.8919,3.8917,3.8916,3.8919,3.8921,0,0,0,0,0,0,0,0,0,0,0,0,0,3.8952,3.8937,3.8999,3.8962,3.8958,3.8999,3.8999,3.8999,3.8925,3.8922,3.8919,3.8916,3.8916,3.8918,3.8921,3.8997,0,0,3.8929,3.893,0,0,0,0,0,0,0,0,3.8951,3.8954,3.8967,3.8964,3.8961,3.8958,3.8976,3.8998,3.8925,3.8938,3.8918,3.8915,3.8933,3.8934,3.8941,3.8996,3.8996,3.8929,3.8931,3.8932,3.8933,0,0,0,0,0,0,0,3.895,3.8954,3.8999,3.8968,3.8964,3.8945,3.8944,3.898,3.8952,3.8936,3.8931,3.8932,3.8931,3.8938,3.894,3.8996,3.8929,3.8932,3.8933,3.8935,3.9115,3.9118,0,0,0,0,0,0,3.8954,3.8953,3.8999,3.8999,3.8949,3.8949,3.8948,3.8962,3.8951,3.8947,3.8934,3.8928,3.8935,3.8937,3.894,3.9028,3.8932,3.8935,3.8936,3.9112,3.9116,3.912,0,0,0,0,0,0,3.8953,3.8959,3.8999,3.8975,3.8978,3.8953,3.897,3.8964,3.8971,3.895,3.8944,3.8947,3.8933,3.8936,3.8983,3.9027,3.8936,3.8938,3.9109,3.9113,3.9118,3.9205,0,0,0,0,0,0,3.8951,3.8959,3.8987,3.8976,3.898,3.9043,3.8972,3.8966,3.8976,3.8968,3.896,3.8956,3.8931,3.898,3.8986,3.9029,3.8941,3.9104,3.9111,3.9116,3.9198,3.9212,3.9224,0,0,0,0,0,3.8949,3.9011,3.8989,3.8995,3.9015,3.9045,3.9048,3.9017,3.898,3.9008,3.8995,3.8956,3.9021,3.8985,3.8992,3.9036,3.9102,3.9109,3.9116,3.9192,3.9209,3.9223,0,0,0,0,0,0,3.9027,3.9009,3.8984,3.9044,3.9047,3.9033,3.9067,3.9036,3.9049,3.9041,3.9003,3.9002,3.9056,3.905,3.9011,3.9109,3.9055,3.9064,3.911,3.9126,3.9139,3.9139,3.8943,0,0,0,0,0,3.9051,3.9078,3.906,3.9115,3.9118,3.9093,3.9105,3.9081,3.9083,3.9083,3.9073,3.9076,3.9097,3.9111,3.9129,3.9197,3.9194,3.9231,3.9244,3.9255,3.9262,3.9298,3.9314,3.9143,3.9143,3.9143,0,0,3.9101,3.9094,3.9113,3.913,3.913,3.9158,3.9094,3.9126,3.9147,3.9088,3.9132,3.9125,3.9126,3.9184,3.9209,3.9181,3.9309,3.9264,3.9273,3.9274,3.9307,3.9324,3.9338,3.9148,3.9147,3.9146,0,0,3.9206,3.9204,3.925,3.9251,3.9252,3.9235,3.9246,3.9237,3.923,3.9274,3.9231,3.9255,3.9292,3.9295,3.9301,3.941,3.9375,3.9417,3.9484,3.952,3.9533,3.9545,3.9584,3.9598,3.9425,3.9425,3.9425,0,3.9268,3.9309,3.9277,3.9313,3.9322,3.9271,3.9317,3.932,3.9326,3.9334,3.9303,3.9349,3.9345,3.9404,3.9431,3.9437,3.9449,3.9417,3.9534,3.9545,3.9556,3.9593,3.9607,3.943,3.9429,3.9429,3.9428,0,3.9386,3.9415,3.9452,3.946,3.9473,3.9514,3.9488,3.9506,3.9482,3.9469,3.9515,3.9509,3.9526,3.9538,3.9515,3.9594,3.9576,3.9541,3.9485,3.9578,3.9612,3.9625,3.9437,3.9435,3.9434,3.9433,0,0,3.9538,3.953,3.9544,3.9547,3.9545,3.9567,3.9606,3.9623,3.9639,3.9646,3.9677,3.9711,3.9678,3.9685,3.9662,3.9693,3.978,3.9653,3.9652,3.9677,3.9867,3.9894,3.9911,3.9758,3.976,3.9762,3.9867,0,3.964,3.9706,3.9679,3.9748,3.9775,3.9728,3.9762,3.9765,3.9754,3.9775,3.9763,3.9788,3.9742,3.9746,3.9775,3.9763,3.9818,3.9756,3.9787,3.9788,3.9787,3.9928,3.9956,4.0055,3.988,3.9882,3.9884,0,3.9768,3.9781,3.9853,3.9847,3.9857,3.9888,3.9902,3.9923,3.9926,3.9916,3.9925,3.9895,3.9933,3.9879,3.9931,3.9889,3.9901,3.9897,3.99,3.9901,3.9841,3.9933,4.0086,4.0101,3.9904,3.9903,3.9901,0,3.9872,3.9908,3.9955,3.996,3.9954,3.9977,3.9976,3.9976,3.9988,4.0,4.0008,4.0025,4.0034,4.0047,4.0023,3.9986,4.0079,4.0022,4.0071,4.0072,4.0092,4.0091,4.0249,4.0101,4.0101,4.01,4.01,0,3.9989,4.0034,4.0002,4.0031,4.0081,4.005,4.0101,4.0094,4.0095,4.0122,4.0083,4.0109,4.0076,4.0099,4.008,4.0127,4.0131,4.0124,4.0118,4.0127,4.0128,4.0133,4.0126,4.0104,4.0103,4.0103,4.0102,0,4.0113,4.0093,4.0142,4.0134,4.0133,4.017,4.0162,4.0189,4.0176,4.0212,4.0218,4.0198,4.0223,4.0201,4.0225,4.0213,4.0274,4.0259,4.0274,4.0269,4.032,4.0315,4.0486,4.0507,4.0346,4.0347,4.0349,0,4.0188,4.0222,4.0218,4.0234,4.0236,4.0261,4.0274,4.0245,4.026,4.0267,4.0293,4.0315,4.0332,4.0375,4.0362,4.0381,4.0366,4.0424,4.0368,4.0376,4.0366,4.0364,4.0368,4.0435,4.0437,4.0439,4.044,0,4.0324,4.0313,4.0333,4.0351,4.0367,4.0379,4.0388,4.0404,4.0374,4.0393,4.0419,4.0432,4.0458,4.0481,4.0496,4.0494,4.0463,4.0458,4.0471,4.0479,4.0487,4.0483,4.0304,4.0454,4.0453,4.0452,4.0451,4.045,4.0426,4.0454,4.0456,4.0481,4.0485,4.0494,4.0519,4.051,4.0532,4.0551,4.0533,4.0565,4.0567,4.0584,4.0587,4.0611,4.0587,4.0604,4.0609,4.0614,4.0621,4.0484,4.0614,4.0613,4.0613,4.0613,4.0612,0,4.056,4.0559,4.0582,4.0596,4.0615,4.0585,4.0594,4.0612,4.0641,4.0646,4.0663,4.0694,4.0716,4.0706,4.0726,4.0748,4.0734,4.0754,4.0751,4.0752,4.0642,4.0629,4.0765,4.0765,4.0765,4.0765,4.0764,4.0764,4.0631,4.0678,4.0668,4.0717,4.0716,4.0747,4.0755,4.0764,4.0768,4.0804,4.0823,4.0817,4.0816,4.0835,4.0855,4.0851,4.086,4.0886,4.0877,4.0774,4.0759,4.0745,4.0733,4.0888,4.0888,4.0985,4.0986,4.0986]},{"header":{"parameterUnit":"m.s-1","parameterCategory":1,"la1":30.2991,"la2":30.254,"lo1":-89.0895,"lo2":-89.0444,"dx":0.0017,"dy":0.0017,"nx":28,"ny":28,"refTime":"2022-12-14T15:00:00:Z","depth":0,"parameterNumber":3,"parameterNumberName":"V-component_of_WINDS"},"data":[0,0,0,0,0,0,0,0,0,0,0,0,0,0,0,0,0,0,0,0,0,0,0,0,0,0,0,0,0,0,0,0,0,0,0,0,0,0,0,0,0,0,0,0,0,0,0,0,0,0,0,0,0,0,0,0,0,0,-3.6657,-3.6659,0,-3.6865,-3.6868,-3.687,-3.6892,-3.689,-3.6888,-3.6885,-3.7103,-3.7111,-3.7119,0,0,0,0,0,0,0,0,0,0,0,0,0,-3.6282,-3.6289,-3.6657,-3.6659,-3.6662,-3.6865,-3.6868,-3.6871,-3.6892,-3.689,-3.6887,-3.6884,-3.7101,-3.711,-3.7119,0,0,0,0,0,0,0,0,0,0,0,0,0,-3.6463,-3.6291,-3.6656,-3.6697,-3.6703,-3.6864,-3.6868,-3.6872,-3.6893,-3.6889,-3.6886,-3.6883,-3.7098,-3.7109,-3.7121,-3.7258,0,0,-3.7157,-3.7162,0,0,0,0,0,0,0,0,-3.6453,-3.6477,-3.6688,-3.6694,-3.6701,-3.6849,-3.6816,-3.7001,-3.6894,-3.6821,-3.6885,-3.6882,-3.7022,-3.7039,-3.7086,-3.7268,-3.7277,-3.7158,-3.7165,-3.717,-3.7173,0,0,0,0,0,0,0,-3.644,-3.6468,-3.6739,-3.6691,-3.6699,-3.6707,-3.6729,-3.6851,-3.6937,-3.6827,-3.6829,-3.6853,-3.7025,-3.7074,-3.7091,-3.728,-3.7157,-3.7168,-3.7175,-3.7179,-3.7588,-3.7592,0,0,0,0,0,0,-3.6419,-3.6457,-3.6733,-3.6746,-3.6566,-3.6716,-3.6741,-3.6805,-3.6936,-3.6952,-3.6856,-3.6853,-3.7056,-3.7077,-3.7099,-3.727,-3.717,-3.7181,-3.7187,-3.7584,-3.7589,-3.7593,0,0,0,0,0,0,-3.6411,-3.6444,-3.6724,-3.6602,-3.6638,-3.6726,-3.6798,-3.6811,-3.6861,-3.6957,-3.6973,-3.689,-3.7054,-3.7082,-3.7218,-3.7278,-3.7186,-3.7197,-3.758,-3.7586,-3.7591,-3.7611,0,0,0,0,0,0,-3.64,-3.6441,-3.6492,-3.6603,-3.6645,-3.6839,-3.6801,-3.6817,-3.688,-3.6879,-3.6994,-3.701,-3.7054,-3.7201,-3.723,-3.7292,-3.7206,-3.7575,-3.7582,-3.7589,-3.7606,-3.7617,-3.7626,0,0,0,0,0,-3.6387,-3.649,-3.6495,-3.6528,-3.6711,-3.6842,-3.6866,-3.6913,-3.6885,-3.6939,-3.7001,-3.7007,-3.7266,-3.7214,-3.7248,-3.7314,-3.7571,-3.758,-3.7588,-3.7601,-3.7615,-3.7626,0,0,0,0,0,0,-3.6385,-3.6505,-3.6512,-3.6653,-3.6737,-3.6845,-3.6914,-3.6926,-3.702,-3.7016,-3.7071,-3.7097,-3.7231,-3.7286,-3.7227,-3.7455,-3.7416,-3.7432,-3.7414,-3.7428,-3.7438,-3.7423,-3.7215,0,0,0,0,0,-3.6401,-3.6496,-3.6596,-3.6712,-3.6753,-3.6826,-3.6885,-3.6914,-3.7004,-3.704,-3.7112,-3.72,-3.7302,-3.7368,-3.7466,-3.7613,-3.764,-3.7675,-3.7686,-3.7694,-3.7707,-3.7792,-3.7809,-3.7621,-3.7621,-3.7621,0,0,-3.6435,-3.6512,-3.6569,-3.6713,-3.6781,-3.6881,-3.6856,-3.6961,-3.7036,-3.7056,-3.7189,-3.7245,-3.7348,-3.749,-3.7556,-3.754,-3.7765,-3.7705,-3.771,-3.772,-3.7802,-3.782,-3.7836,-3.7627,-3.7626,-3.7625,0,0,-3.6548,-3.6615,-3.672,-3.6789,-3.6892,-3.694,-3.6965,-3.7072,-3.711,-3.7244,-3.7262,-3.7352,-3.7525,-3.7598,-3.7658,-3.78,-3.7809,-3.783,-3.7886,-3.7967,-3.7982,-3.7995,-3.8048,-3.8066,-3.7843,-3.7843,-3.7843,0,-3.6578,-3.6726,-3.6772,-3.6878,-3.6942,-3.6963,-3.7071,-3.7136,-3.7267,-3.7312,-3.729,-3.751,-3.758,-3.7741,-3.7775,-3.7822,-3.7854,-3.7818,-3.7976,-3.799,-3.8003,-3.8054,-3.8074,-3.7845,-3.7845,-3.7845,-3.7844,0,-3.6759,-3.6862,-3.6934,-3.7059,-3.7131,-3.7237,-3.7301,-3.7369,-3.7392,-3.7443,-3.758,-3.7665,-3.7782,-3.7822,-3.7846,-3.7988,-3.7974,-3.7964,-3.7927,-3.8022,-3.8071,-3.8091,-3.7848,-3.7847,-3.7847,-3.7846,0,0,-3.6878,-3.7027,-3.7053,-3.7111,-3.7227,-3.7308,-3.7416,-3.7529,-3.7588,-3.7677,-3.7771,-3.7917,-3.7909,-3.7976,-3.8008,-3.808,-3.819,-3.8061,-3.8064,-3.8084,-3.8354,-3.8363,-3.8384,-3.8196,-3.82,-3.8203,-3.8346,0,-3.7006,-3.7197,-3.7242,-3.7407,-3.7504,-3.7526,-3.762,-3.7703,-3.7754,-3.7845,-3.7901,-3.8005,-3.7985,-3.8026,-3.8097,-3.8161,-3.8245,-3.8151,-3.8286,-3.829,-3.8262,-3.841,-3.8419,-3.855,-3.8365,-3.8369,-3.8371,0,-3.7181,-3.7274,-3.7448,-3.7553,-3.7595,-3.7679,-3.7788,-3.7873,-3.7968,-3.8001,-3.8076,-3.8102,-3.8217,-3.8173,-3.8334,-3.8269,-3.8327,-3.8367,-3.8373,-3.8389,-3.8338,-3.8432,-3.8593,-3.8613,-3.8401,-3.8399,-3.8397,0,-3.7253,-3.7422,-3.7548,-3.7596,-3.7721,-3.778,-3.7835,-3.7927,-3.7993,-3.8088,-3.8132,-3.824,-3.8299,-3.8383,-3.8438,-3.84,-3.8596,-3.8555,-3.8628,-3.8627,-3.867,-3.8667,-3.8844,-3.8703,-3.8703,-3.8703,-3.8702,0,-3.7393,-3.7499,-3.7582,-3.766,-3.7781,-3.7832,-3.795,-3.8006,-3.8087,-3.8178,-3.8204,-3.8289,-3.8355,-3.845,-3.8493,-3.8622,-3.8648,-3.8679,-3.869,-3.8678,-3.8675,-3.8719,-3.8712,-3.8708,-3.8707,-3.8706,-3.8705,0,-3.7494,-3.7554,-3.7693,-3.78,-3.7829,-3.7914,-3.8006,-3.8084,-3.8135,-3.825,-3.828,-3.8361,-3.8474,-3.8536,-3.8679,-3.8708,-3.8852,-3.8857,-3.882,-3.8825,-3.8895,-3.8889,-3.9109,-3.9142,-3.8977,-3.8978,-3.8979,0,-3.758,-3.7662,-3.7778,-3.784,-3.7896,-3.7995,-3.8062,-3.8117,-3.8186,-3.8301,-3.8366,-3.848,-3.8574,-3.8754,-3.8828,-3.8937,-3.8946,-3.9016,-3.8963,-3.8949,-3.8951,-3.8946,-3.8956,-3.9026,-3.9027,-3.9028,-3.9029,0,-3.7728,-3.7753,-3.7848,-3.7955,-3.8034,-3.8121,-3.8206,-3.8256,-3.8325,-3.8402,-3.8518,-3.8591,-3.8736,-3.885,-3.8965,-3.9024,-3.904,-3.9045,-3.9068,-3.9059,-3.9035,-3.9051,-3.8848,-3.904,-3.9039,-3.9039,-3.9038,-3.9038,-3.7826,-3.7901,-3.7994,-3.81,-3.817,-3.825,-3.8329,-3.8389,-3.8486,-3.8608,-3.8634,-3.8756,-3.8851,-3.9008,-3.907,-3.9168,-3.9155,-3.9188,-3.9197,-3.9205,-3.9209,-3.9017,-3.9189,-3.9189,-3.9189,-3.9188,-3.9188,0,-3.7977,-3.8038,-3.8135,-3.8254,-3.8338,-3.8342,-3.8438,-3.8508,-3.8615,-3.8702,-3.8794,-3.8928,-3.9039,-3.9121,-3.9235,-3.9298,-3.9308,-3.9326,-3.9323,-3.9337,-3.9212,-3.9182,-3.9316,-3.9316,-3.9316,-3.9316,-3.9316,-3.9316,-3.8066,-3.8193,-3.823,-3.8393,-3.8454,-3.8573,-3.8628,-3.8703,-3.8772,-3.892,-3.9012,-3.9064,-3.9149,-3.927,-3.9373,-3.9394,-3.9436,-3.9454,-3.9477,-3.9359,-3.9346,-3.9333,-3.9305,-3.9462,-3.9462,-3.9594,-3.9595,-3.9596]}]]